x

8419317 - Wells, Me (welm1) Weather Station

5:30 - Fri 4th Sep 2015 All times are EDT. -4 hours from GMT.

  • Wind
    6mph
  • Sea Temp 64°f
  • Luft Temp 65°f
  • Sea Pressure 1022.2mb
  • 8419317 - Wells, Me
  • 8419317 - Wells, Me

More Historic Weather Station data

Upgrade to MSW Pro to gain access to the past 30 days of data for over 8000 Wavebouys and Weather Stations around the globe.

Join Pro

Comparision Forecast

View Surf forecast
   
Fr 09/04 5:30 6
mph
1022.2mb 64f 65f
5:24 5 6 mph 1022.3mb 64f 66f
5:18 5 6 mph 1022.3mb 64f 66f
5:12 5 6 mph 1022.3mb 64f 66f
5:06 5 7 mph 1022.3mb 64f 66f
5:00 6 7 mph 1022.2mb 64f 66f
4:54 5 7 mph 1022.2mb 64f 66f
4:48 6 7 mph 1022.2mb 64f 66f
4:42 5 7 mph 1022.2mb 64f 66f
4:36 6 7 mph 1022.2mb 64f 66f
4:30 6 7 mph 1022.2mb 64f 66f
4:24 6 8 mph 1022.2mb 64f 66f
4:18 6 7 mph 1022.3mb 64f 66f
4:12 7 9 mph 1022.2mb 64f 66f
4:06 5 7 mph 1022.2mb 64f 66f
4:00 6 8 mph 1022.3mb 64f 66f
3:54 6 7 mph 1022.2mb 64f 66f
3:48 6 7 mph 1022.3mb 64f 66f
3:42 6 7 mph 1022.3mb 64f 66f
3:36 5 7 mph 1022.2mb 64f 66f
3:30 6 8 mph 1022.2mb 64f 65f
3:24 6 8 mph 1022.3mb 64f 66f
3:18 6 8 mph 1022.3mb 64f 66f
3:12 6 7 mph 1022.3mb 64f 66f
3:06 5 8 mph 1022.3mb 64f 65f
3:00 6 8 mph 1022.3mb 64f 65f
2:54 5 7 mph 1022.3mb 64f 65f
2:48 6 7 mph 1022.3mb 64f 64f
2:42 6 8 mph 1022.3mb 64f 65f
2:36 6 8 mph 1022.4mb 64f 65f
2:30 6 9 mph 1022.4mb 64f 65f
2:24 9 10 mph 1022.5mb 64f 64f
2:18 7 10 mph 1022.6mb 64f 65f
2:12 8 10 mph 1022.6mb 64f 65f
2:06 8 11 mph 1022.6mb 64f 65f
2:00 9 11 mph 1022.6mb 64f 65f
1:54 10 11 mph 1022.6mb 64f 65f
1:48 9 13 mph 1022.6mb 64f 65f
1:42 10 13 mph 1022.6mb 64f 65f
1:36 10 13 mph 1022.6mb 64f 65f
1:30 10 13 mph 1022.6mb 64f 65f
1:24 9 13 mph 1022.6mb 64f 65f
1:18 10 13 mph 1022.5mb 64f 65f
1:12 10 14 mph 1022.5mb 64f 65f
1:06 10 13 mph 1022.5mb 64f 66f
1:00 10 14 mph 1022.5mb 64f 66f
12:54 11 14 mph 1022.5mb 65f 65f
12:48 11 14 mph 1022.4mb 65f 66f
12:42 10 14 mph 1022.4mb 65f 66f
12:36 10 14 mph 1022.4mb 65f 66f
12:30 10 15 mph 1022.4mb 65f 66f
12:24 13 15 mph 1022.4mb 65f 66f
12:18 11 15 mph 1022.5mb 65f 66f
12:12 14 16 mph 1022.5mb 65f 66f
12:06 13 17 mph 1022.5mb 65f 66f
12:00 11 16 mph 1022.5mb 65f 66f
11:54 10 16 mph 1022.6mb 65f 66f
11:48 10 15 mph 1022.6mb 65f 66f
11:42 13 15 mph 1022.5mb 65f 66f
11:36 10 14 mph 1022.5mb 65f 66f
11:30 11 15 mph 1022.5mb 65f 66f
11:24 11 15 mph 1022.6mb 65f 66f
11:18 13 16 mph 1022.5mb 65f 66f
11:12 10 14 mph 1022.5mb 65f 66f
11:06 10 14 mph 1022.5mb 65f 66f
11:00 10 14 mph 1022.4mb 65f 65f
10:54 9 15 mph 1022.3mb 64f 65f
10:48 11 15 mph 1022.2mb 64f 65f
10:42 14 15 mph 1022.1mb 64f 65f
10:36 10 15 mph 1022.1mb 64f 65f
10:30 11 15 mph 1022mb 64f 65f
10:24 11 15 mph 1022mb 64f 65f
10:18 11 17 mph 1021.9mb 64f 65f
10:12 13 15 mph 1021.8mb 64f 65f
10:06 11 14 mph 1021.8mb 64f 65f
10:00 10 14 mph 1021.8mb 64f 65f
9:54 10 15 mph 1021.7mb 64f 65f
9:48 9 15 mph 1021.5mb 64f 65f
9:42 13 17 mph 1021.4mb 64f 65f
9:36 11 16 mph 1021.4mb 64f 65f
9:30 11 15 mph 1021.3mb 64f 65f
9:24 9 16 mph 1021.1mb 64f 65f
9:18 9 15 mph 1021mb 64f 65f
9:12 10 16 mph 1020.9mb 64f 65f
9:06 11 15 mph 1020.9mb 64f 65f
9:00 9 13 mph 1020.9mb 64f 64f
8:54 10 15 mph 1020.8mb 64f 64f
8:48 8 15 mph 1020.7mb 64f 64f
8:42 9 15 mph 1020.7mb 64f 64f
8:36 10 16 mph 1020.7mb 64f 64f
8:30 11 14 mph 1020.6mb 64f 64f
8:24 9 13 mph 1020.4mb 64f 64f
8:18 9 11 mph 1020.4mb 64f 63f
8:12 8 9 mph 1020.4mb 64f 63f
8:06 8 13 mph 1020.4mb 64f 63f
8:00 10 14 mph 1020.2mb 64f 63f
7:54 10 13 mph 1020.2mb 64f 63f
7:48 9 13 mph 1020mb 64f 63f
7:42 10 15 mph 1019.9mb 64f 62f
7:36 10 15 mph 1019.8mb 64f 62f
7:30 11 17 mph 1019.7mb 64f 62f
7:24 10 15 mph 1019.7mb 64f 62f
7:18 11 14 mph 1019.6mb 64f 62f
7:12 11 14 mph 1019.4mb 64f 62f
7:06 10 13 mph 1019.4mb 64f 62f
7:00 10 13 mph 1019.3mb 64f 62f
6:54 9 11 mph 1019.2mb 64f 62f
6:48 9 11 mph 1019.1mb 64f 62f
6:42 8 10 mph 1019.1mb 64f 62f
6:36 9 11 mph 1019mb 64f 62f
6:30 9 11 mph 1018.9mb 64f 63f
6:24 8 10 mph 1018.8mb 64f 63f
6:18 10 14 mph 1018.7mb 64f 63f
6:12 9 11 mph 1018.7mb 64f 63f
6:06 8 11 mph 1018.6mb 64f 64f
6:00 10 14 mph 1018.6mb 64f 64f
5:54 8 14 mph 1018.5mb 63f 64f
5:48 11 14 mph 1018.4mb 63f 64f
5:42 11 15 mph 1018.3mb 63f 64f
5:36 10 14 mph 1018.1mb 63f 64f
5:30 10 14 mph 1017.9mb 64f 64f
5:24 11 15 mph 1017.9mb 64f 64f
5:18 9 11 mph 1017.7mb 64f 65f
5:12 10 13 mph 1017.6mb 64f 65f
5:06 13 15 mph 1017.6mb 64f 65f
5:00 11 17 mph 1017.5mb 64f 65f
4:54 11 14 mph 1017.3mb 63f 66f
4:48 9 11 mph 1017.3mb 63f 66f
4:42 10 17 mph 1017.3mb 63f 67f
4:36 10 15 mph 1017.1mb 63f 67f
4:30 13 15 mph 1017.1mb 64f 67f
4:24 14 20 mph 1017.1mb 63f 67f
4:18 8 15 mph 1017.1mb 63f 67f
4:12 10 13 mph 1016.9mb 64f 67f
4:06 8 11 mph 1016.8mb 64f 67f
4:00 10 16 mph 1016.8mb 64f 67f
3:54 14 17 mph 1016.7mb 64f 67f
3:48 8 13 mph 1016.6mb 64f 67f
3:42 10 14 mph 1016.5mb 64f 67f
3:36 11 17 mph 1016.3mb 64f 67f
3:30 11 14 mph 1016.2mb 64f 67f
3:24 10 13 mph 1016.1mb 64f 67f
3:18 8 14 mph 1016.1mb 64f 67f
3:12 9 13 mph 1016.1mb 64f 68f
3:06 8 14 mph 1016mb 63f 68f
3:00 8 20 mph 1015.9mb 63f 67f
2:54 9 16 mph 1015.9mb 63f 67f
2:48 10 16 mph 1015.9mb 63f 67f
2:42 8 18 mph 1015.9mb 63f 67f
2:36 8 15 mph 1015.8mb 63f 67f
2:30 14 22 mph 1015.7mb 63f 67f
2:24 10 17 mph 1015.7mb 63f 68f
2:18 13 17 mph 1015.4mb 63f 68f
2:12 11 20 mph 1015.2mb 63f 68f
2:06 14 20 mph 1015.1mb 63f 68f
2:00 15 21 mph 1014.9mb 64f 69f
1:54 11 18 mph 1014.7mb 64f 69f
1:48 14 22 mph 1014.6mb 64f 69f
1:42 14 17 mph 1014.4mb 64f 70f
1:36 13 20 mph 1014.3mb 64f 71f
1:30 11 16 mph 1014.3mb 64f 71f
1:24 9 11 mph 1014.3mb 64f 71f
1:18 13 16 mph 1014.2mb 64f 71f
1:12 11 15 mph 1014.1mb 64f 71f
1:06 7 9 mph 1014mb 65f 71f
1:00 6 7 mph 1013.8mb 66f 70f
12:54 5
mph
1013.7mb 66f 71f
12:48 3 5 mph 1013.7mb 67f 71f
12:42 2 3 mph 1013.7mb 67f 71f
12:36 2
mph
1013.6mb 69f 70f
12:30  -  1 mph 1013.5mb 69f 70f
12:24 1 3 mph 1013.5mb 69f 70f
12:18 3 5 mph 1013.4mb 69f 70f
12:12 5 6 mph 1013.2mb 69f 71f
12:06 5
mph
1013.1mb 69f 71f
12:00 3
mph
1013mb 69f 71f
Do 09/03 11:54 3 5 mph 1013mb 69f 71f
11:48 5 6 mph 1013mb 69f 71f
11:42 3 5 mph 1013mb 69f 71f
11:36 2
mph
1013mb 69f 71f
11:30 2 3 mph 1012.9mb 69f 70f
11:24 2 3 mph 1012.9mb 69f 70f
11:18  -  2 mph 1012.8mb 69f 70f
11:12 2 3 mph 1012.7mb 69f 71f
11:06 3
mph
1012.6mb 69f 70f
11:00 2 3 mph 1012.7mb 69f 70f
10:54 3 5 mph 1012.6mb 69f 70f
10:48 3
mph
1012.5mb 69f 70f
10:42 2 3 mph 1012.5mb 69f 69f
10:36 5
mph
1012.4mb 69f 70f
10:30 5
mph
1012.3mb 69f 69f
10:24 5
mph
1012.3mb 69f 69f
10:18 3
mph
1012.2mb 69f 68f
10:12 3
mph
1012.1mb 69f 69f
10:06 1
mph
1012mb 69f 70f
10:00  -  1 mph 1012mb 69f 70f
9:54  -  2 mph 1012mb 69f 70f
9:48 2
mph
1011.9mb 69f 70f
9:42  -  1 mph 1011.8mb 69f 71f
9:36  -  2 mph 1011.8mb 69f 71f
9:30 2 3 mph 1011.7mb 68f 71f
9:24 2 3 mph 1011.7mb 68f 71f
9:18  -  2 mph 1011.8mb 68f 71f
9:12 1 3 mph 1011.8mb 68f 71f
9:06 2
mph
1011.7mb 68f 71f
9:00  -  2 mph 1011.6mb 68f 71f
8:54 2
mph
1011.6mb 68f 70f
8:48 2
mph
1011.6mb 68f 71f
8:42  -  2 mph 1011.5mb 68f 72f
8:36 2 3 mph 1011.5mb 68f 72f
8:30 3
mph
1011.4mb 68f 72f
8:24 2
mph
1011.3mb 68f 72f
8:18 1 2 mph 1011.4mb 67f 72f
8:12  -  2 mph 1011.2mb 67f 72f
8:06 1 3 mph 1011.2mb 67f 72f
8:00 2 3 mph 1011.3mb 67f 72f
7:54 2 5 mph 1011.3mb 67f 72f
7:48 3 5 mph 1011.2mb 67f 73f
7:42 2 3 mph 1011mb 67f 73f
7:36 1 2 mph 1011mb 67f 73f
7:30  -  3 mph 1011mb 67f 73f
7:24 3
mph
1010.9mb 67f 72f
7:18 1 3 mph 1010.8mb 67f 73f
7:12 3 5 mph 1010.7mb 67f 73f
7:06 2
mph
1010.6mb 67f 73f
7:00  -  1 mph 1010.6mb 66f 73f
6:54  -  2 mph 1010.6mb 66f 74f
6:48 1 2 mph 1010.6mb 66f 74f
6:42 1 2 mph 1010.6mb 66f 74f
6:36 3 6 mph 1010.6mb 66f 74f
6:30 3 5 mph 1010.5mb 66f 74f
6:24 3 6 mph 1010.6mb 65f 74f
6:18 5
mph
1010.5mb 65f 74f
6:12  -  2 mph 1010.4mb 65f 75f
6:06 1 2 mph 1010.3mb 65f 76f
6:00 1
mph
1010.2mb 65f 76f
5:54 2
mph
1010.2mb 65f 75f
5:48 2 5 mph 1010.2mb 65f 76f
5:42 1 2 mph 1010.1mb 65f 76f
5:36 1 3 mph 1010.1mb 64f 76f
5:30 2 3 mph 1010mb 64f 76f
5:24 2
mph
1010mb 64f 76f
5:18  -  1 mph 1010mb 64f 76f
5:12 1 2 mph 1010mb 64f 76f
5:06 2
mph
1010.1mb 64f 75f
5:00 2
mph
1010.1mb 63f 76f
4:54 2 3 mph 1010.1mb 63f 76f
4:48 1 5 mph 1010.1mb 63f 75f
4:42 5 6 mph 1010.1mb 63f 74f
4:36 2 3 mph 1010mb 63f 75f
4:30 3 6 mph 1009.9mb 63f 74f
4:24 6 7 mph 1009.9mb 62f 73f
4:18 6 7 mph 1009.8mb 63f 73f
4:12 6 8 mph 1009.8mb 63f 74f
4:06 6 8 mph 1009.9mb 64f 74f
4:00 5 6 mph 1009.8mb 64f 74f
3:54 6
mph
1009.5mb 64f 74f
3:48 3 7 mph 1009.9mb 63f 75f
3:42 6 7 mph 1009.8mb 63f 75f
3:36 6 8 mph 1009.8mb 63f 75f
3:30 7 9 mph 1009.7mb 64f 76f
3:24 6 7 mph 1009.8mb 63f 76f
3:18 7 9 mph 1009.8mb 64f 77f
3:12 6 7 mph 1009.7mb 64f 77f
3:06 6 7 mph 1009.7mb 64f 78f
3:00 6 8 mph 1009.7mb 64f 78f
2:54 7
mph
1009.7mb 64f 77f
2:48 6 7 mph 1009.8mb 64f 77f
2:42 6 7 mph 1009.9mb 64f 77f
2:36 6 7 mph 1010mb 64f 77f
2:30 6 7 mph 1010mb 64f 76f
2:24 6 7 mph 1010.1mb 64f 78f
2:18 6 7 mph 1010.1mb 64f 78f
2:12 6 7 mph 1010mb 64f 78f
2:06 6 7 mph 1010mb 64f 77f
2:00 6 7 mph 1010.1mb 64f 77f
1:54 6 7 mph 1010.1mb 64f 77f
1:48 6 8 mph 1010.1mb 64f 78f
1:42 5 7 mph 1010mb 64f 78f
1:36 5 7 mph 1010mb 64f 77f
1:30 6 7 mph 1009.9mb 64f 78f
1:24 5 6 mph 1009.9mb 64f 78f
1:18 5 7 mph 1010mb 64f 78f
1:12 5 6 mph 1010mb 64f 78f
1:06 5 7 mph 1010mb 64f 78f
1:00 6 8 mph 1010.1mb 64f 77f
12:54 6 7 mph 1010.1mb 64f 78f
12:48  -  mph 1010.2mb 64f 78f
12:42  -  mph 1010.1mb 64f 78f
12:36  -  mph 1010.1mb 64f 77f
12:30 6 8 mph 1010.1mb 64f 77f
12:24 6 8 mph 1010.2mb 64f 77f
12:18 6 8 mph 1010.2mb 64f 77f
12:12 6 8 mph 1010.2mb 64f 77f
12:06 7 8 mph 1010.3mb 64f 77f
12:00 6 9 mph - 65f 77f
11:54 7 8 mph - 65f 77f
11:48 7 9 mph 1010.3mb 65f 77f
11:42 7 8 mph 1010.3mb 65f 78f
11:36 7 8 mph 1010.3mb 64f 78f
11:30 6 7 mph 1010.3mb 64f -
11:24 5 8 mph 1010.4mb 64f -
11:18 3 7 mph 1010.5mb 64f 79f
11:12 6 10 mph 1010.5mb 64f 77f
11:06 7 9 mph 1010.4mb 64f 80f
11:00 7 8 mph 1010.4mb - -
10:54 8 9 mph 1010.4mb - -
10:48 8 10 mph 1010.4mb 64f 80f
10:42 7 10 mph 1010.4mb 64f 80f
10:36 8 11 mph 1010.4mb 64f 79f
10:30 9 10 mph 1010.3mb 64f 79f
10:24 7 10 mph 1010.3mb 64f 79f
10:18 7 11 mph 1010.4mb - 79f
10:12 8 10 mph 1010.4mb - 78f
10:06 8 10 mph 1010.4mb - 78f
10:00 7 10 mph 1010.4mb 64f 78f
9:54 8 10 mph 1010.5mb 64f 78f
9:48 6 11 mph 1010.4mb 64f 77f
9:42 7 9 mph 1010.4mb 64f 77f
9:36 8 10 mph 1010.4mb 64f 77f
9:30 8 10 mph 1010.4mb 64f -
9:24 7 10 mph 1010.3mb 64f -
9:18 7 9 mph 1010.4mb 64f 76f
9:12 7 10 mph 1010.4mb 64f 75f
9:06 7 9 mph 1010.4mb 64f 75f
9:00 8 9 mph 1010.4mb 64f 75f
8:54 6 7 mph 1010.4mb 64f 75f
8:48 6 7 mph 1010.3mb 64f 75f
8:42 6 7 mph 1010.3mb 64f 74f
8:36 5 7 mph 1010.3mb 64f 74f
8:30 5 7 mph 1010.2mb 64f 73f
8:24 6
mph
1010.2mb 64f 73f
8:18 3
mph
1010.3mb 64f 72f
8:12 2 3 mph - - -
8:06  -  2 mph - - -
8:00  -  1 mph - - -
7:54 1 3 mph 1010.2mb 64f 70f
7:48 3
mph
1010.1mb 64f 69f
7:42 3 5 mph 1010.1mb 64f 69f
7:36 5
mph
1010.1mb 64f 68f
7:30 5
mph
1010.1mb 64f 67f
7:24 5 6 mph 1010mb 64f 67f
7:18 3 5 mph 1009.9mb 64f 67f
7:12 3 5 mph 1009.8mb 63f 67f
7:06 3
mph
1009.8mb 63f 67f
7:00 2 3 mph 1009.8mb 63f 67f
6:54 2 3 mph 1009.7mb 63f 67f
6:48 2 5 mph 1009.6mb 63f 67f
6:42 5 6 mph 1009.5mb 63f 67f
6:36 5 6 mph 1009.4mb 63f 67f
6:30 3 5 mph 1009.3mb 63f 67f
6:24 3 5 mph 1009.2mb 63f 67f
6:18 5 6 mph 1009.1mb 63f 67f
6:12 5
mph
1009.1mb 63f 66f
6:06 3
mph
1009.3mb 63f 65f
6:00 2 3 mph 1009.1mb 63f 65f
5:54 3 5 mph 1009.1mb 63f 65f
5:48 3
mph
1009.1mb 63f 65f
5:42 2 3 mph 1009mb 63f 66f
5:36 2 3 mph 1009mb 63f 66f
5:30 3 5 mph 1009.1mb 63f 65f
5:24 3 5 mph 1009.1mb 63f 66f
5:18 2
mph
1009.1mb 63f 66f
5:12 1 2 mph 1009mb 63f 67f
5:06 1
mph
1009mb 63f 67f
5:00 1 2 mph 1008.9mb 63f 67f
4:54 1 3 mph 1009mb 63f 67f
4:48 3 5 mph 1008.9mb 63f 67f
4:42 5 6 mph 1009mb 63f 67f
4:36 5 7 mph 1009mb 62f 67f
4:30 6 7 mph 1009mb 62f 67f
4:24 6 7 mph 1008.9mb 62f 68f
4:18 6 7 mph 1008.9mb 62f 68f
4:12 5 6 mph 1008.9mb 62f 67f
4:06 6
mph
1009mb 62f 68f
4:00 3 5 mph 1008.8mb 62f 68f
3:54 3 5 mph 1008.8mb 62f 68f
3:48 6 7 mph 1008.8mb 62f 68f
3:42 5 6 mph 1008.8mb 62f 67f
3:36 2 3 mph 1008.7mb 62f 66f
3:30 1 2 mph 1008.8mb 62f 65f
3:24 1 2 mph 1008.8mb 62f 65f
3:18 2 3 mph 1008.8mb 62f 66f
3:12 2
mph
1008.8mb 62f 67f
3:06 1 2 mph 1008.8mb 62f 67f
3:00 2 5 mph 1008.8mb 62f 67f
2:54 3 5 mph 1008.9mb 62f 68f
2:48  -  mph - 62f 68f
2:42  -  mph - 62f 68f
2:36  -  mph - 62f 68f
2:30 2 3 mph 1009.1mb 63f 68f
2:24 3
mph
1009.1mb 63f 68f
2:18 3 5 mph 1009.1mb 63f 68f
2:12 3 5 mph 1009.1mb 63f 68f
2:06 3 5 mph 1009.2mb 62f 68f
2:00 3 5 mph 1009.2mb 63f 68f
1:54 3 5 mph 1009.3mb 63f 68f
1:48 1 2 mph 1009.2mb 63f 69f
1:42 2
mph
1009.3mb 63f 69f
1:36 2 3 mph 1009.4mb 63f 69f
1:30 2 3 mph 1009.4mb 63f 69f
1:24 2 3 mph 1009.4mb 63f 69f
1:18 1 2 mph 1009.4mb 63f 69f
1:12  -  1 mph 1009.3mb 63f 69f
1:06  -  3 mph 1009.4mb 63f 69f
1:00 2 3 mph 1009.3mb 63f 69f
12:54 3 5 mph 1009.3mb 63f 69f
12:48 3 5 mph 1009.3mb 63f 70f
12:42 2
mph
1009.3mb 63f 70f
12:36  -  2 mph 1009.3mb 64f 70f
12:30 1 2 mph 1009.3mb 64f 70f
12:24  -  1 mph 1009.4mb 64f 70f
12:18  -  1 mph 1009.5mb 64f 70f
12:12 1 2 mph 1009.5mb 63f 70f
12:06 1 3 mph 1009.4mb 64f 70f
12:00 2 3 mph 1009.4mb 64f 70f
Mi 09/02 11:54 2 3 mph 1009.4mb 65f 70f
11:48  -  5 mph 1009.4mb 65f 70f
11:42 2 5 mph 1009.4mb 67f 70f
11:36  -  3 mph 1009.4mb 67f 69f
11:30 2 5 mph 1009.4mb 68f 69f
11:24  -  1 mph 1009.4mb 68f 69f
11:18 1 2 mph 1009.4mb 69f 70f
11:12 2 3 mph 1009.5mb 69f 70f
11:06  -  1 mph 1009.4mb 69f 69f
11:00 1 3 mph 1009.4mb 69f 70f
10:54 2
mph
1009.4mb 69f 70f
10:48 2 3 mph 1009.4mb 69f 69f
10:42 2
mph
1009.4mb 69f 67f
10:36 2
mph
1009.5mb 69f 67f
10:30 2
mph
1009.5mb 69f 68f
10:24 1
mph
1009.6mb 69f 68f
10:18 1 2 mph 1009.6mb 69f 68f
10:12 2
mph
1009.7mb 69f 68f
10:06  -  1 mph 1009.7mb 69f 68f
10:00 1 2 mph 1009.7mb 69f 68f
9:54  -  1 mph 1009.9mb 69f 69f
9:48  -  1 mph 1009.9mb 69f 69f
9:42  -  1 mph 1010mb 69f 69f
9:36  -  1 mph 1010mb 68f 69f
9:30  -  mph 1010mb 68f 70f
9:24  -  1 mph 1010.1mb 68f 70f
9:18 1 2 mph 1010.1mb 67f 69f
9:12  -  1 mph 1010.1mb 67f 69f
9:06 2
mph
1010.2mb 67f 68f
9:00 2 3 mph 1010.2mb 67f -
8:54 2
mph
1010.2mb 67f -
8:48 2
mph
1010.1mb 67f 69f
8:42  -  1 mph 1010mb 67f 69f
8:36  -  1 mph 1010mb 67f 69f
8:30  -  1 mph 1010mb 67f 69f
8:24  -  3 mph 1010mb 67f 70f
8:18 1 2 mph 1009.9mb 67f 71f
8:12 1
mph
1009.9mb 67f 71f
8:06 1 2 mph 1009.9mb 67f 70f
8:00 3
mph
1009.8mb 67f 70f
7:54 2 3 mph 1009.7mb 67f 70f
7:48 3
mph
1009.7mb 67f 71f
7:42 2
mph
1009.7mb 67f 71f
7:36 1 3 mph 1009.7mb 67f 71f
7:30 3
mph
1009.7mb 67f 72f
7:24 3
mph
1009.7mb 67f 72f
7:18 2 3 mph 1009.6mb 67f 72f
7:12 2
mph
1009.5mb 67f 72f
7:06 2 3 mph 1009.5mb 66f 71f
7:00 2 5 mph 1009.6mb 66f 73f
6:54  -  1 mph 1009.6mb 66f 74f
6:48  -  2 mph 1009.6mb 66f 75f
6:42  -  2 mph 1009.7mb 66f 76f
6:36 2 3 mph 1009.7mb 66f 76f
6:30 2 3 mph 1009.8mb 66f 77f
6:24 1 2 mph 1009.9mb 66f 77f
6:18  -  1 mph 1009.9mb 65f 76f
6:12  -  5 mph 1009.9mb 65f 77f
6:06 3 5 mph 1009.9mb 65f 76f
6:00 2
mph
1010mb 65f 76f
5:54 1 5 mph 1010mb 65f 76f
5:48 5 7 mph 1010.1mb 65f 74f
5:42 7 9 mph 1010.2mb 65f 74f
5:36 6 8 mph 1010.2mb 64f 74f
5:30 6 8 mph 1010.2mb 64f 74f
5:24 3 7 mph 1010.3mb 64f 73f
5:18  -  mph - 64f 74f
5:12  -  mph - 64f 73f
5:06 3 9 mph 1010.4mb 64f 73f
5:00 8 14 mph 1010.4mb 63f 74f
4:54 14 15 mph 1010.4mb 63f 74f
4:48 14 16 mph 1010.4mb 63f 74f
4:42 14 17 mph 1010.5mb 63f 74f
4:36 14 15 mph 1010.6mb 63f 73f
4:30 13 16 mph 1010.7mb 62f 73f
4:24 13 15 mph 1010.7mb 62f 73f
4:18 11 14 mph 1010.7mb 62f 73f
4:12 13 15 mph 1010.8mb 62f 73f
4:06 11 14 mph 1010.8mb 62f 73f
4:00 10 13 mph 1010.9mb 62f 73f
3:54 9 13 mph 1011mb 61f 73f
3:48 9 13 mph 1011.1mb 62f 73f
3:42 8 10 mph 1011.1mb 62f 73f
3:36 7 9 mph 1011.2mb 61f 73f
3:30 6 8 mph 1011.3mb 61f 74f
3:24 3 5 mph 1011.3mb 61f 74f
3:18 3 6 mph 1011.5mb 61f 74f
3:12 5 6 mph 1011.5mb 61f 74f
3:06 3 5 mph 1011.5mb 61f 74f
3:00 5 6 mph 1011.5mb 61f 74f
2:54 5 7 mph 1011.6mb 61f 74f
2:48 5 7 mph 1011.6mb 61f 75f
2:42 2 3 mph 1011.7mb 61f 76f
2:36 3 7 mph 1011.8mb 61f 75f
2:30 5 6 mph 1011.7mb 61f 74f
2:24 3 6 mph 1011.8mb 61f 74f
2:18 3 7 mph 1011.9mb 61f 74f
2:12 3 6 mph 1011.9mb 61f 72f
2:06 3 6 mph 1012mb 61f 73f
2:00 5 6 mph 1012mb 61f 73f
1:54 3 6 mph 1012.1mb 61f 72f
1:48 5 6 mph 1012.1mb 61f 73f
1:42 3 7 mph 1012.1mb 61f 72f
1:36 3 6 mph 1012.2mb 61f 72f
1:30 3 6 mph 1012.2mb 61f 73f
1:24 3 5 mph 1012.2mb 61f 72f
1:18 5 6 mph 1012.3mb 61f 71f
1:12 5
mph
1012.4mb 61f 71f
1:06 3 6 mph 1012.5mb 61f 71f
1:00 5 6 mph 1012.5mb 61f 70f
12:54 5 6 mph 1012.6mb 62f 70f
12:48 3 5 mph 1012.6mb 62f 71f
12:42 3 6 mph 1012.6mb 62f 70f
12:36 3 6 mph 1012.7mb 62f 72f
12:30 2 5 mph 1012.8mb 62f 73f
12:24 3 5 mph 1012.9mb 62f 73f
12:18 3 5 mph 1012.9mb 62f 73f
12:12 3 6 mph 1013mb 62f 72f
12:06 5 7 mph 1013mb 62f 72f
12:00 5 6 mph 1013mb 63f 72f
11:54 5 6 mph 1013mb 63f 72f
11:48 5 6 mph 1013.1mb 63f 72f
11:42 5 7 mph 1013.2mb 63f 71f
11:36 6 7 mph 1013.2mb 63f 71f
11:30 6 8 mph 1013.3mb 63f 71f
11:24 7 8 mph 1013.3mb 63f 70f
11:18 7 8 mph 1013.3mb 63f 70f
11:12 6 7 mph 1013.4mb 63f 70f
11:06 6 7 mph 1013.4mb 62f 70f
11:00 5 6 mph 1013.4mb 62f 71f
10:54 5 6 mph 1013.5mb 62f 71f
10:48 3 5 mph 1013.6mb 62f 71f
10:42 5 6 mph 1013.7mb 62f 70f
10:36 5 6 mph 1013.7mb 62f 70f
10:30 5 6 mph 1013.7mb 62f 70f
10:24 3 5 mph 1013.8mb 62f 71f
10:18 5
mph
1013.8mb 62f -
10:12 5 6 mph 1013.8mb 62f -
10:06 5 6 mph 1013.9mb 62f -
10:00 5 6 mph 1013.9mb 62f 69f
9:54 5 6 mph 1013.9mb 62f 69f
9:48 6
mph
1014mb 62f 69f
9:42 5 6 mph 1014mb 62f 69f
9:36 5 6 mph 1014.1mb 62f 69f
9:30 3
mph
1014mb 62f 70f
9:24 2 3 mph 1014mb 62f 68f
9:18 2 3 mph 1014mb 62f 67f
9:12 2 3 mph 1014.1mb 62f 67f
9:06 2 3 mph 1014.1mb 62f 66f
9:00 2 3 mph 1014.1mb 62f 66f
8:54 2
mph
1014mb 62f 66f
8:48 1
mph
1014.1mb 62f 66f
8:42 1 2 mph 1014mb 62f 65f
8:36 2
mph
1014mb 62f 65f
8:30  -  1 mph 1014.1mb 62f 65f
8:24 1 3 mph 1014mb 62f 65f
8:18 2
mph
1014mb 62f 64f
8:12 1 2 mph 1014.1mb 62f 65f
8:06 1 2 mph 1014.1mb 62f 65f
8:00  -  1 mph 1014.2mb 62f 66f
7:54  -  2 mph 1014.2mb 62f 65f
7:48 2
mph
1014.2mb 62f 66f
7:42  -  1 mph 1014.2mb 62f 65f
7:36  -  1 mph 1014.2mb 62f 64f
7:30  -  1 mph 1014.3mb 62f 63f
7:24  -  1 mph 1014.3mb 62f 62f
7:18  -  1 mph 1014.3mb 62f 62f
7:12  -  1 mph 1014.3mb 62f 61f
7:06  -  2 mph 1014.3mb 62f 60f
7:00 1 2 mph 1014.2mb 62f 60f
6:54  -  mph 1014.2mb 62f 59f
6:48  -  1 mph 1014.2mb 62f 59f
6:42 1
mph
1014.2mb 62f 58f
6:36  -  1 mph 1014.2mb 62f 59f
6:30  -  1 mph 1014.1mb 62f 58f
6:24 1
mph
1014.2mb 62f 58f
6:18 1
mph
1014.2mb 62f 57f
6:12 1
mph
1014.1mb 62f 57f
6:06  -  2 mph 1014.2mb 62f 57f
6:00 2
mph
1014.1mb 62f 57f
5:54 2 3 mph 1014.2mb 61f 57f
5:48 3 5 mph 1014.3mb 61f 57f
5:42 3
mph
1014.2mb 61f 57f
5:36 3
mph
1014.2mb 61f 57f
5:30 2 3 mph 1014.3mb 61f 58f
5:24  -  2 mph 1014.3mb 61f 58f
5:18 2
mph
1014.3mb 61f 58f
5:12  -  1 mph 1014.3mb 61f 58f
5:06  -  2 mph 1014.2mb 61f 58f
5:00 1 2 mph 1014.2mb 61f 58f
4:54 1 2 mph 1014.3mb 61f 58f
4:48 2 3 mph 1014.3mb 61f 58f
4:42 2
mph
1014.2mb 61f 59f
4:36  -  1 mph 1014.3mb 61f 59f
4:30  -  1 mph 1014.3mb 61f 60f
4:24 1
mph
1014.4mb 61f 60f
4:18  -  1 mph 1014.3mb 61f 59f
4:12 1 2 mph 1014.4mb 61f 59f
4:06 1 2 mph 1014.3mb 61f 59f
4:00 1 2 mph 1014.4mb 61f 59f
3:54 2
mph
1014.5mb 61f 59f
3:48 2 3 mph 1014.6mb 61f 60f
3:42 2 3 mph 1014.6mb 61f 60f
3:36  -  1 mph 1014.6mb 61f 60f
3:30  -  1 mph 1014.6mb 61f 60f
3:24  -  1 mph 1014.6mb 61f 60f
3:18  -  2 mph 1014.6mb 61f 60f
3:12 2
mph
1014.6mb 60f 60f
3:06 1 2 mph 1014.7mb 60f 60f
3:00 2
mph
1014.7mb 61f 60f
2:54 2 3 mph 1014.7mb 61f 60f
2:48 2 3 mph 1014.7mb 61f 60f
2:42  -  2 mph 1014.9mb 60f 60f
2:36 2
mph
1014.9mb 60f 60f
2:30  -  1 mph 1015mb 60f 60f
2:24 1 2 mph 1015mb 60f 61f
2:18  -  1 mph 1015.1mb 60f -
2:12  -  1 mph 1015.2mb 60f -
2:06  -  1 mph 1015.3mb 60f -
2:00  -  1 mph 1015.3mb 60f 61f
1:54  -  1 mph 1015.4mb 60f 61f
1:48  -  1 mph 1015.5mb 60f 61f
1:42  -  mph 1015.5mb 60f 61f
1:36  -  mph 1015.6mb 60f 61f
1:30  -  mph 1015.7mb 60f 61f
1:24  -  1 mph 1015.7mb 60f 61f
1:18  -  mph 1015.8mb 60f 61f
1:12  -  1 mph 1015.8mb 60f 61f
1:06 1
mph
1015.9mb 60f 61f
1:00  -  1 mph 1015.8mb 60f 61f
12:54  -  2 mph 1015.9mb 61f 61f
12:48 1 2 mph 1015.8mb 61f 61f
12:42 1
mph
1015.8mb 61f 61f
12:36  -  1 mph 1015.8mb 61f 61f
12:30 2
mph
1015.8mb 61f 61f
12:24  -  2 mph 1015.9mb 62f 61f
12:18 2
mph
1015.9mb 62f 61f
12:12  -  2 mph 1015.9mb 62f 61f
12:06 1 2 mph 1016mb 62f 61f
12:00 1 2 mph 1016mb 62f 61f
Di 09/01 11:54 2
mph
1016mb 62f 61f
11:48 1 2 mph 1016mb 62f 62f
11:42 2 3 mph 1016.1mb 62f 63f
11:36 3
mph
1016mb 62f 63f
11:30 2 3 mph 1016.1mb 62f 62f
11:24 2
mph
1016.1mb 62f 62f
11:18 1 2 mph 1016.1mb 62f 62f
11:12 1 2 mph 1016mb 62f 62f
11:06  -  1 mph 1016.1mb 62f 62f
11:00  -  1 mph 1016.1mb 62f 62f
10:54 1
mph
1016.1mb 63f 62f
10:48  -  1 mph 1016.1mb 64f 62f
10:42  -  1 mph 1016.2mb 65f 63f
10:36  -  2 mph 1016.2mb 66f 64f
10:30 3 5 mph 1016.1mb 67f 64f
10:24 5 6 mph 1016.2mb 67f 64f
10:18 3 5 mph 1016.1mb 67f 64f
10:12 2
mph
1016.1mb 67f 64f
10:06 1 2 mph 1016.1mb 67f 64f
10:00 2 3 mph 1016.2mb 67f 65f
9:54 2 3 mph 1016.2mb 67f 65f
9:48 2 5 mph 1016.3mb 67f 65f
9:42 2 3 mph 1016.3mb 67f 65f
9:36 2 3 mph 1016.3mb 67f 65f
9:30 2 3 mph 1016.3mb 67f 65f
9:24 2 5 mph 1016.3mb 67f 65f
9:18 2 3 mph 1016.2mb 67f 65f
9:12 1 3 mph 1016.3mb 67f 65f
9:06 2 3 mph 1016.3mb 67f 65f
9:00 2 3 mph 1016.2mb 67f 65f
8:54 2 3 mph 1016.2mb 67f 65f
8:48 2 3 mph 1016.3mb 67f 66f
8:42 2 5 mph 1016.3mb 66f 66f
8:36 2 3 mph 1016.3mb 66f 66f
8:30 2 3 mph 1016.3mb 66f 66f
8:24 2 3 mph 1016.2mb 66f 66f
8:18 2 5 mph 1016.2mb 65f 66f
8:12 3 6 mph 1016.3mb 65f 67f
8:06 5
mph
1016.2mb 65f 67f
8:00 5
mph
1016.2mb 65f 67f
7:54 3 5 mph 1016.1mb 65f 66f
7:48 5 6 mph 1016.1mb 65f 66f
7:42 6 7 mph 1016mb 65f 66f
7:36 7
mph
1016mb 65f 66f
7:30 6 8 mph 1016mb 65f 67f
7:24 7 8 mph 1016mb 65f 68f
7:18 6 8 mph 1015.9mb 65f 68f
7:12 6 7 mph 1015.9mb 65f 68f
7:06 6 7 mph 1015.8mb 65f 68f
7:00 7 8 mph 1015.8mb 65f 68f
6:54 7 9 mph 1015.8mb 66f 68f
6:48 7 9 mph 1015.8mb 66f 68f
6:42 8 10 mph 1015.8mb 66f 69f
6:36 8 9 mph 1015.9mb 65f 69f
6:30 8 10 mph 1015.9mb 65f 69f
6:24 9 11 mph 1015.9mb 65f 69f
6:18 9 10 mph 1015.9mb 65f 69f
6:12 10 13 mph 1016mb 65f 69f
6:06 9 14 mph 1015.9mb 65f 69f
6:00 11 14 mph 1016mb 65f 69f
5:54 9 11 mph 1015.9mb 65f 69f
5:48 10 14 mph 1016mb 65f 69f
5:42 10 14 mph 1016mb 65f 69f
5:36 13 14 mph 1016mb 64f 69f
5:30 10 13 mph 1015.9mb 64f 69f
5:24 13 14 mph 1016mb 65f 69f
5:18 11 14 mph 1015.9mb 64f 69f
5:12 10 13 mph 1016mb 64f 69f
5:06 13 14 mph 1016mb 64f 69f
5:00 11 15 mph 1015.9mb 64f 69f
4:54 11 14 mph 1016mb 64f 69f
4:48 13 15 mph 1016mb 63f 69f
4:42 11 14 mph 1016mb 63f 69f
4:36 11 14 mph 1016.1mb 63f 69f
4:30 13 14 mph 1016.1mb 63f 69f
4:24 11 14 mph 1016.2mb 63f 69f
4:18 10 13 mph 1016.2mb 63f 70f
4:12 10 13 mph 1016.2mb 62f 70f
4:06 9 11 mph 1016.2mb 63f 70f
4:00 8 11 mph 1016.2mb 62f 70f
3:54 9 11 mph 1016.3mb 62f 70f
3:48 9 11 mph 1016.3mb 62f 70f
3:42 9 13 mph 1016.3mb 62f 70f
3:36 9 11 mph 1016.4mb 62f 70f
3:30 10 13 mph 1016.4mb 62f 70f
3:24 10 13 mph 1016.5mb 62f 70f
3:18 9 13 mph 1016.6mb 62f 71f
3:12 10 13 mph 1016.7mb 62f 70f
3:06 10 13 mph 1016.7mb 62f 71f
3:00 10 13 mph 1016.8mb 62f 71f
2:54 10 13 mph 1016.7mb 61f 71f
2:48 9 13 mph 1016.7mb 61f 71f
2:42 10 13 mph 1016.8mb 61f 70f
2:36 9 13 mph 1016.8mb 61f 71f
2:30 9 11 mph 1016.8mb 61f 71f
2:24 9 11 mph 1016.8mb 61f 71f
2:18 8 11 mph 1016.9mb 61f 71f
2:12 9 11 mph 1016.9mb 61f 71f
2:06 9 11 mph 1016.9mb 61f 71f
2:00 9 10 mph 1016.9mb 61f 71f
1:54 8 10 mph 1016.9mb 61f 71f
1:48 8 9 mph 1016.8mb 61f 71f
1:42 9 10 mph 1017mb 61f 71f
1:36 7 8 mph 1016.9mb 61f 71f
1:30 7 9 mph 1017mb 61f 71f
1:24 6 9 mph 1017mb 61f 71f
1:18 8 10 mph 1017mb 61f 71f
1:12 7 9 mph 1017mb 61f 71f
1:06 7 9 mph 1016.9mb 61f 71f
1:00 8 9 mph 1016.9mb 61f 71f
12:54 7 8 mph 1016.9mb 61f 71f
12:48 7 9 mph 1016.8mb 61f 71f
12:42 7 8 mph 1016.8mb 61f 71f
12:36 6 8 mph 1016.7mb 60f 71f
12:30 6 8 mph 1016.8mb 60f 71f
12:24 7 9 mph 1016.8mb 60f 71f
12:18 8 9 mph 1016.9mb 60f -
12:12 8 9 mph 1017mb 60f -
12:06 7 8 mph 1016.9mb 60f -
12:00 7 9 mph 1017.1mb 60f 71f
11:54 6 8 mph 1017mb 60f 71f
11:48 6 8 mph - 60f 71f
11:42 5 8 mph - 60f 71f
11:36 6 8 mph - 60f 70f
11:30 7 9 mph 1017.2mb 60f 71f
11:24 7 9 mph 1017.1mb 59f 71f
11:18 9 10 mph 1017.1mb 59f 71f
11:12 8 9 mph 1017mb 59f 72f
11:06 7 9 mph 1017mb 59f 72f
11:00 7 9 mph 1017mb 60f 72f
10:54 8 10 mph 1017mb 60f 72f
10:48 7 10 mph 1016.9mb 60f 72f
10:42 9 10 mph 1017mb 60f 72f
10:36 7 9 mph 1016.9mb 60f 73f
10:30 6 8 mph 1016.8mb 60f 73f
10:24 6 8 mph 1016.7mb 61f 73f
10:18 8 11 mph 1016.6mb 60f 73f
10:12 7 9 mph 1016.6mb 60f 73f
10:06 7 11 mph 1016.6mb 60f 73f
10:00 8 11 mph 1016.6mb 60f 73f
9:54 6 9 mph 1016.6mb 60f 73f
9:48 8 11 mph 1016.5mb 60f 72f
9:42 9 11 mph 1016.5mb 60f 72f
9:36 8 10 mph 1016.5mb 60f 72f
9:30 8 13 mph 1016.4mb 60f 72f
9:24 10 13 mph 1016.4mb 60f 72f
9:18 8 10 mph 1016.4mb 60f 72f
9:12 7 9 mph 1016.3mb 60f 72f
9:06 6 7 mph 1016.4mb 60f 71f
9:00 5 8 mph 1016.4mb 60f 71f
8:54 5 8 mph 1016.3mb 60f 71f
8:48 2
mph
1016.2mb 60f 71f
8:42  -  1 mph 1016.2mb 60f 70f
8:36  -  2 mph 1016.2mb 60f 69f
8:30 1 2 mph 1016.2mb 60f 69f
8:24 1
mph
1016.2mb 60f 69f
8:18 1 5 mph 1016.2mb 60f 66f
8:12 5
mph
1016.2mb 60f 65f
8:06 2 3 mph 1016.2mb 60f 66f
8:00 3 5 mph 1016.1mb 60f 65f
7:54 3 5 mph 1016.1mb 60f 65f
7:48 5 6 mph 1016.1mb 60f 65f
7:42 5 6 mph 1016.1mb 60f 65f
7:36 5 8 mph 1016.1mb 60f 64f
7:30 3 5 mph 1016mb 60f 67f
7:24 3 5 mph 1015.9mb 60f 66f
7:18 3
mph
1015.9mb 60f 65f
7:12 3 5 mph 1015.7mb 60f 65f
7:06 3 5 mph 1015.6mb 60f 65f
7:00 2 3 mph 1015.5mb 60f 65f
6:54  -  2 mph 1015.5mb 60f 65f
6:48 2 5 mph 1015.4mb 60f 64f
6:42 3 5 mph 1015.4mb 60f 64f
6:36 5 6 mph 1015.4mb 60f 63f
6:30 5 6 mph - - 63f
6:24 5 6 mph - - 63f
6:18 3 6 mph 1015.1mb 60f 62f
6:12 6
mph
1015mb 60f 62f
6:06 3 5 mph 1015mb 60f 62f
6:00 3 6 mph 1014.9mb 59f 62f
5:54 6
mph
1014.9mb 59f 62f
5:48  -  mph 1014.9mb 59f 62f
5:42  -  mph 1014.9mb 59f 62f
5:36  -  mph 1014.9mb 59f 62f
5:30 3 5 mph 1014.9mb 59f 62f
5:24 5 6 mph 1014.9mb 59f 62f
5:18 3 6 mph 1014.8mb 59f 63f
5:12 2 5 mph 1014.7mb 59f 63f
5:06 3 6 mph 1014.6mb 59f 63f
5:00 3 5 mph 1014.5mb 59f 63f
4:54 2 3 mph 1014.5mb 59f 62f
4:48 3
mph
1014.4mb 58f 62f
4:42 2 3 mph 1014.3mb 58f 63f
4:36  -  1 mph 1014.4mb 58f 63f
4:30  -  2 mph 1014.3mb 58f 63f
4:24 1 2 mph 1014.3mb 58f 64f
4:18 1 3 mph - 58f 64f
4:12 1 5 mph - 58f 64f
4:06 1 2 mph - 58f 64f
4:00  -  3 mph 1014.1mb 58f 64f
3:54 2 6 mph 1013.9mb 58f 64f
3:48 3 5 mph 1013.8mb 58f 64f
3:42 1 5 mph 1013.7mb 58f 65f
3:36 2 3 mph 1013.6mb 58f 65f
3:30 2 3 mph 1013.6mb 58f 65f
3:24 1 2 mph 1013.6mb 58f 64f
3:18 2 3 mph 1013.5mb 58f 65f
3:12 2 5 mph 1013.4mb 58f 65f
3:06 3 5 mph 1013.4mb 58f 66f
3:00 2 5 mph 1013.4mb 58f 65f
2:54 2 7 mph 1013.4mb 58f 67f
2:48 6 9 mph 1013.3mb 58f 67f
2:42 8 10 mph 1013.2mb 58f 67f
2:36 8
mph
1013.1mb 58f 67f
2:30 7 9 mph 1013.1mb 58f 68f
2:24 6 9 mph 1013.1mb 57f 69f
2:18 6 8 mph 1013.2mb 57f 69f
2:12 6 10 mph 1013.1mb 57f 69f
2:06 7 9 mph 1013.2mb 57f 69f
2:00 6 10 mph 1013.1mb 57f 69f
1:54 5 7 mph 1013.2mb 57f 69f
1:48 5 8 mph 1013.3mb 57f 70f
1:42 5 7 mph 1013.2mb 57f 69f
1:36 6 8 mph 1013.1mb 57f 69f
1:30 6 8 mph 1013.1mb 57f 69f
1:24 1 5 mph 1013.1mb 57f 68f
1:18  -  1 mph 1013.1mb 57f 67f
1:12 1 3 mph 1013.2mb 57f 67f
1:06 3 6 mph 1013.2mb 57f 67f
1:00 2 3 mph 1013.2mb 57f -
12:54 1 6 mph 1013.2mb 57f -
12:48 5 7 mph 1013.2mb 57f 70f
12:42 6 8 mph 1013.1mb 57f 69f
12:36 3 5 mph 1013.2mb 58f 70f
12:30 3 8 mph 1013mb 58f 70f
12:24 6 7 mph 1012.9mb 58f 70f
12:18 2 6 mph 1013mb 58f 69f
12:12 5 6 mph 1012.8mb 58f 69f
12:06 3 5 mph 1012.8mb 58f 69f
12:00 1 2 mph - 58f 69f
Mo 08/31 11:54  -  2 mph - 58f 68f
11:48 1 3 mph 1012.8mb 58f 69f
11:42 3 5 mph 1012.7mb 58f 71f
11:36 1 2 mph 1012.8mb 58f 70f
11:30  -  3 mph 1012.8mb 58f 70f
11:24 2 5 mph 1012.6mb 58f 70f
11:18 3 9 mph 1012.4mb 58f 73f
11:12 6 9 mph 1012.3mb 58f 72f
11:06 7 8 mph 1012.3mb 58f 73f
11:00 3 6 mph 1012.4mb 58f 73f
10:54 5 6 mph 1012.3mb 58f 73f
10:48 6
mph
1012.1mb 58f 74f
10:42 2 5 mph 1012.2mb 58f 74f
10:36 3 6 mph 1012.2mb 58f 75f
10:30 5 7 mph 1012.1mb 58f 75f
10:24 5 7 mph 1012.1mb 58f 75f
10:18 3 8 mph - 58f 76f